�������l�o���
Date,Time,MP-1(��Sv/h),MP-2(��Sv/h),MP-3(��Sv/h),MP-4(��Sv/h),MP-5(��Sv/h),MP-6(��Sv/h),MP-7(��Sv/h),MP-8(��Sv/h),����,����(m/s),���J
2022/10/24,00:00,0.576,0.829,0.531,1.034,0.731,0.339,0.585,0.556,�k�k��,5.6,�L
2022/10/24,00:10,0.573,0.827,0.532,1.033,0.731,0.337,0.588,0.556,�k�k��,5.5,�L
2022/10/24,00:20,0.575,0.829,0.533,1.034,0.730,0.337,0.587,0.555,�k�k��,6.5,�L
2022/10/24,00:30,0.574,0.829,0.531,1.036,0.732,0.340,0.587,0.556,�k�k��,7.7,�L
2022/10/24,00:40,0.576,0.829,0.532,1.034,0.732,0.341,0.587,0.556,�k�k��,7.2,�L
2022/10/24,00:50,0.579,0.827,0.534,1.035,0.731,0.343,0.585,0.557,�k,7.6,�L
2022/10/24,01:00,0.578,0.827,0.532,1.033,0.728,0.343,0.586,0.555,�k,8.4,�L
2022/10/24,01:10,0.576,0.825,0.532,1.035,0.731,0.343,0.585,0.556,�k,7.2,�L
2022/10/24,01:20,0.575,0.824,0.532,1.031,0.729,0.342,0.586,0.556,�k�k��,6.1,�L
2022/10/24,01:30,0.576,0.823,0.531,1.031,0.727,0.340,0.586,0.555,�k�k��,6.3,�L
2022/10/24,01:40,0.573,0.821,0.531,1.032,0.727,0.339,0.584,0.554,�k�k��,5.6,��
2022/10/24,01:50,0.573,0.822,0.530,1.030,0.726,0.339,0.585,0.555,�k,6.5,�L
2022/10/24,02:00,0.572,0.818,0.528,1.031,0.725,0.338,0.584,0.556,�k,7.8,�L
2022/10/24,02:10,0.571,0.821,0.528,1.031,0.725,0.339,0.587,0.554,�k�k��,7.2,�L
2022/10/24,02:20,0.571,0.820,0.525,1.028,0.723,0.336,0.584,0.552,�k�k��,3.2,�L
2022/10/24,02:30,0.570,0.819,0.524,1.030,0.723,0.337,0.585,0.554,�k�k��,4.3,�L
2022/10/24,02:40,0.573,0.820,0.528,1.029,0.726,0.339,0.585,0.555,�k,6.8,�L
2022/10/24,02:50,0.570,0.821,0.530,1.032,0.727,0.341,0.585,0.557,�k�k��,6.3,�L
2022/10/24,03:00,0.570,0.820,0.530,1.030,0.725,0.340,0.586,0.555,�k�k��,8.3,��
2022/10/24,03:10,0.571,0.821,0.529,1.030,0.726,0.340,0.585,0.554,�k�k��,8.5,��
2022/10/24,03:20,0.571,0.820,0.526,1.030,0.725,0.340,0.585,0.555,�k�k��,7.9,��
2022/10/24,03:30,0.571,0.820,0.526,1.033,0.723,0.337,0.584,0.553,�k�k��,5.8,�L
2022/10/24,03:40,0.570,0.820,0.528,1.030,0.724,0.338,0.584,0.554,�k�k��,6.0,�L
2022/10/24,03:50,0.572,0.821,0.527,1.033,0.725,0.339,0.586,0.554,�k�k��,5.9,�L
2022/10/24,04:00,0.572,0.821,0.530,1.033,0.726,0.342,0.585,0.554,�k�k��,6.1,�L
2022/10/24,04:10,0.575,0.822,0.533,1.035,0.727,0.344,0.586,0.554,�k�k��,6.7,�L
2022/10/24,04:20,0.577,0.824,0.532,1.035,0.727,0.345,0.586,0.555,�k�k��,6.4,�L
2022/10/24,04:30,0.579,0.823,0.535,1.035,0.727,0.345,0.586,0.553,�k�k��,6.7,�L
2022/10/24,04:40,0.580,0.827,0.535,1.036,0.726,0.346,0.585,0.555,�k,8.4,�L
2022/10/24,04:50,0.576,0.823,0.535,1.034,0.726,0.345,0.587,0.555,�k�k��,7.8,�L
2022/10/24,05:00,0.575,0.819,0.532,1.031,0.725,0.343,0.585,0.554,�k�k��,7.7,��
2022/10/24,05:10,0.574,0.818,0.531,1.033,0.723,0.342,0.584,0.554,�k�k��,8.4,��
2022/10/24,05:20,0.573,0.818,0.529,1.030,0.721,0.339,0.586,0.553,�k�k��,7.1,��
2022/10/24,05:30,0.569,0.818,0.528,1.030,0.722,0.337,0.584,0.553,�k��,4.7,��
2022/10/24,05:40,0.570,0.815,0.526,1.030,0.721,0.337,0.584,0.554,�k��,4.1,��
2022/10/24,05:50,0.567,0.814,0.525,1.027,0.721,0.336,0.584,0.552,�k�k��,4.7,��
2022/10/24,06:00,0.566,0.814,0.524,1.029,0.718,0.336,0.585,0.552,�k�k��,5.0,��
2022/10/24,06:10,0.566,0.813,0.523,1.027,0.717,0.338,0.584,0.550,�k�k��,5.8,��
2022/10/24,06:20,0.565,0.812,0.524,1.027,0.717,0.334,0.584,0.553,�k�k��,6.1,��
2022/10/24,06:30,0.566,0.810,0.522,1.026,0.717,0.335,0.584,0.552,�k�k��,5.8,��
2022/10/24,06:40,0.563,0.813,0.521,1.024,0.717,0.335,0.583,0.553,�k��,3.9,��
2022/10/24,06:50,0.563,0.809,0.523,1.025,0.716,0.334,0.585,0.552,�k��,4.3,��
2022/10/24,07:00,0.564,0.812,0.521,1.025,0.717,0.334,0.585,0.552,�k��,5.9,��
2022/10/24,07:10,0.564,0.812,0.521,1.025,0.717,0.334,0.584,0.551,�k�k��,8.7,��
2022/10/24,07:20,0.563,0.811,0.521,1.027,0.716,0.334,0.584,0.552,�k�k��,7.2,��
2022/10/24,07:30,0.562,0.810,0.520,1.025,0.715,0.333,0.586,0.551,�k�k��,6.0,��
2022/10/24,07:40,0.563,0.810,0.520,1.023,0.718,0.333,0.585,0.552,�k�k��,5.4,��
2022/10/24,07:50,0.563,0.811,0.522,1.025,0.708,0.334,0.584,0.550,�k�k��,5.4,��
2022/10/24,08:00,0.564,0.809,0.521,1.025,0.705,0.334,0.585,0.551,�k�k��,5.9,�L
2022/10/24,08:10,0.562,0.811,0.520,1.027,0.705,0.333,0.585,0.552,�k�k��,5.1,�L
2022/10/24,08:20,0.565,0.810,0.519,1.026,0.708,0.333,0.584,0.553,�k�k��,5.7,��
2022/10/24,08:30,0.565,0.807,0.520,1.027,0.705,0.333,0.585,0.551,�k�k��,4.5,��
2022/10/24,08:40,0.564,0.810,0.521,1.025,0.713,0.333,0.584,0.552,�k��,4.6,��
2022/10/24,08:50,0.565,0.810,0.521,1.027,0.716,0.331,0.585,0.555,�k�k��,5.9,��
2022/10/24,09:00,0.565,0.809,0.521,1.026,0.715,0.333,0.582,0.553,�k�k��,5.3,��
2022/10/24,09:10,0.563,0.809,0.520,1.026,0.714,0.333,0.584,0.551,�k�k��,7.0,��
2022/10/24,09:20,0.564,0.810,0.521,1.024,0.714,0.335,0.584,0.553,�k�k��,6.8,��
2022/10/24,09:30,0.565,0.811,0.519,1.025,0.715,0.334,0.583,0.552,�k�k��,5.7,��
2022/10/24,09:40,0.565,0.812,0.520,1.026,0.718,0.332,0.583,0.552,�k��,5.0,��
2022/10/24,09:50,0.565,0.810,0.519,1.027,0.716,0.335,0.584,0.553,�k�k��,4.4,��
2022/10/24,10:00,0.566,0.812,0.520,1.026,0.716,0.334,0.583,0.551,�k�k��,4.8,��
2022/10/24,10:10,0.566,0.810,0.520,1.025,0.715,0.333,0.582,0.552,�k�k��,5.3,��
2022/10/24,10:20,0.567,0.812,0.522,1.027,0.710,0.334,0.584,0.552,�k�k��,5.3,��
2022/10/24,10:30,0.565,0.811,0.522,1.027,0.716,0.335,0.583,0.552,�k�k��,4.6,��
2022/10/24,10:40,0.566,0.812,0.521,1.027,0.716,0.334,0.583,0.555,�k,4.8,��
2022/10/24,10:50,0.566,0.810,0.522,1.028,0.716,0.335,0.583,0.552,�k,4.7,��
2022/10/24,11:00,0.568,0.810,0.519,1.028,0.715,0.335,0.583,0.554,�k,6.1,��
2022/10/24,11:10,0.565,0.811,0.520,1.027,0.717,0.335,0.584,0.552,�k,6.2,�L
2022/10/24,11:20,0.567,0.810,0.521,1.029,0.718,0.334,0.584,0.554,�k,6.1,��
2022/10/24,11:30,0.565,0.813,0.522,1.029,0.717,0.335,0.584,0.553,�k�k��,5.9,��
2022/10/24,11:40,0.567,0.811,0.523,1.029,0.719,0.334,0.584,0.551,�k�k��,5.3,��
2022/10/24,11:50,0.565,0.811,0.525,1.027,0.718,0.335,0.583,0.552,�k�k��,4.2,��
2022/10/24,12:00,0.569,0.811,0.522,1.027,0.719,0.335,0.583,0.551,�k�k��,5.3,��
2022/10/24,12:10,0.567,0.812,0.523,1.029,0.721,0.333,0.584,0.554,�k,5.1,��
2022/10/24,12:20,0.568,0.815,0.524,1.028,0.719,0.334,0.584,0.552,�k�k��,3.7,��
2022/10/24,12:30,0.568,0.813,0.524,1.028,0.721,0.336,0.584,0.552,�k�k��,4.5,��
2022/10/24,12:40,0.566,0.815,0.523,1.030,0.720,0.333,0.584,0.552,�k�k��,4.5,��
2022/10/24,12:50,0.565,0.814,0.523,1.028,0.722,0.334,0.583,0.553,�k,3.8,��
2022/10/24,13:00,0.569,0.812,0.524,1.029,0.720,0.334,0.582,0.551,�k,4.9,��
2022/10/24,13:10,0.569,0.811,0.524,1.029,0.718,0.335,0.583,0.553,�k�k��,4.6,��
2022/10/24,13:20,0.568,0.811,0.523,1.028,0.721,0.335,0.583,0.553,�k,5.5,��
2022/10/24,13:30,0.567,0.814,0.524,1.030,0.721,0.335,0.583,0.552,�k,6.0,��
2022/10/24,13:40,0.568,0.813,0.525,1.029,0.719,0.335,0.584,0.553,�k�k��,5.5,��
2022/10/24,13:50,0.567,0.814,0.524,1.029,0.720,0.336,0.582,0.553,�k,4.6,��
2022/10/24,14:00,0.570,0.814,0.522,1.028,0.721,0.336,0.585,0.554,�k,3.2,��
2022/10/24,14:10,0.569,0.814,0.523,1.028,0.720,0.335,0.584,0.553,�k,4.5,��
2022/10/24,14:20,0.570,0.815,0.524,1.028,0.720,0.335,0.584,0.555,�k,3.9,��
2022/10/24,14:30,0.569,0.817,0.524,1.028,0.723,0.335,0.583,0.553,�k,3.4,��
2022/10/24,14:40,0.571,0.816,0.524,1.032,0.722,0.335,0.583,0.553,�k,3.7,��
2022/10/24,14:50,0.569,0.815,0.524,1.028,0.721,0.335,0.584,0.553,�k,3.0,��
2022/10/24,15:00,0.568,0.816,0.525,1.030,0.721,0.334,0.584,0.554,�k,3.1,��
2022/10/24,15:10,0.569,0.817,0.524,1.032,0.721,0.335,0.583,0.553,�k,3.0,��
2022/10/24,15:20,0.568,0.817,0.523,1.031,0.722,0.335,0.585,0.553,�k,2.9,��
2022/10/24,15:30,0.569,0.815,0.524,1.030,0.724,0.336,0.585,0.555,�k,2.9,��
2022/10/24,15:40,0.570,0.818,0.524,1.030,0.724,0.335,0.584,0.554,�k�k��,4.0,��
2022/10/24,15:50,0.568,0.817,0.525,1.031,0.724,0.336,0.583,0.553,�k�k��,4.2,��
2022/10/24,16:00,0.570,0.818,0.526,1.032,0.723,0.334,0.586,0.554,�k�k��,4.8,��
2022/10/24,16:10,0.569,0.817,0.525,1.030,0.721,0.335,0.585,0.554,�k�k��,3.1,��
2022/10/24,16:20,0.569,0.816,0.524,1.029,0.723,0.335,0.583,0.554,�k,3.6,��
2022/10/24,16:30,0.566,0.817,0.525,1.032,0.720,0.335,0.584,0.555,�k,4.0,��
2022/10/24,16:40,0.566,0.819,0.524,1.033,0.724,0.336,0.584,0.554,�k,3.6,��
2022/10/24,16:50,0.566,0.819,0.525,1.029,0.722,0.334,0.584,0.553,�k,4.0,��
2022/10/24,17:00,0.567,0.819,0.524,1.032,0.722,0.336,0.584,0.553,�k,4.5,��
2022/10/24,17:10,0.566,0.817,0.523,1.031,0.723,0.335,0.584,0.554,�k,4.0,��
2022/10/24,17:20,0.567,0.818,0.524,1.031,0.722,0.334,0.585,0.554,�k,4.8,��
2022/10/24,17:30,0.567,0.817,0.524,1.031,0.721,0.334,0.585,0.552,�k�k��,4.6,��
2022/10/24,17:40,0.565,0.818,0.523,1.029,0.722,0.334,0.587,0.553,�k�k��,5.6,��
2022/10/24,17:50,0.567,0.818,0.525,1.030,0.724,0.335,0.586,0.551,�k�k��,5.1,��
2022/10/24,18:00,0.566,0.818,0.525,1.031,0.723,0.335,0.585,0.552,�k�k��,4.8,��
2022/10/24,18:10,0.567,0.819,0.525,1.031,0.723,0.333,0.584,0.552,�k��,5.1,��
2022/10/24,18:20,0.567,0.818,0.523,1.029,0.723,0.333,0.586,0.551,�k��,4.7,��
2022/10/24,18:30,0.566,0.817,0.525,1.031,0.721,0.336,0.586,0.553,�k��,5.4,��
2022/10/24,18:40,0.567,0.819,0.525,1.031,0.722,0.334,0.586,0.552,�k�k��,4.9,��
2022/10/24,18:50,0.567,0.817,0.523,1.032,0.723,0.333,0.587,0.552,�k��,5.5,��
2022/10/24,19:00,0.566,0.816,0.523,1.032,0.722,0.334,0.586,0.553,�k��,5.6,��
2022/10/24,19:10,0.567,0.818,0.525,1.030,0.723,0.335,0.587,0.552,�k��,6.0,��
2022/10/24,19:20,0.566,0.818,0.524,1.034,0.723,0.335,0.586,0.552,�k��,5.9,��
2022/10/24,19:30,0.567,0.816,0.524,1.031,0.722,0.334,0.587,0.552,�k��,6.0,��
2022/10/24,19:40,0.567,0.816,0.525,1.030,0.723,0.334,0.587,0.552,�k��,5.3,��
2022/10/24,19:50,0.566,0.817,0.525,1.033,0.721,0.335,0.586,0.553,�k��,5.9,��
2022/10/24,20:00,0.566,0.819,0.525,1.033,0.721,0.334,0.588,0.552,�k��,6.1,��
2022/10/24,20:10,0.568,0.818,0.523,1.030,0.723,0.334,0.588,0.552,�k��,5.8,��
2022/10/24,20:20,0.567,0.817,0.525,1.032,0.722,0.335,0.587,0.554,�k��,5.6,��
2022/10/24,20:30,0.566,0.818,0.523,1.033,0.724,0.334,0.587,0.552,�k��,6.2,��
2022/10/24,20:40,0.566,0.818,0.524,1.031,0.723,0.334,0.587,0.553,�k��,5.8,��
2022/10/24,20:50,0.568,0.817,0.525,1.032,0.725,0.336,0.586,0.553,�k��,5.8,��
2022/10/24,21:00,0.567,0.817,0.525,1.033,0.723,0.335,0.588,0.553,�k��,6.8,��
2022/10/24,21:10,0.567,0.816,0.522,1.032,0.723,0.335,0.587,0.553,�k�k��,7.9,��
2022/10/24,21:20,0.566,0.818,0.524,1.031,0.721,0.333,0.587,0.554,�k�k��,8.0,��
2022/10/24,21:30,0.567,0.817,0.525,1.030,0.722,0.334,0.587,0.552,�k��,8.0,��
2022/10/24,21:40,0.568,0.817,0.525,1.032,0.725,0.335,0.587,0.554,�k�k��,7.6,��
2022/10/24,21:50,0.566,0.817,0.523,1.033,0.723,0.334,0.587,0.553,�k�k��,7.9,��
2022/10/24,22:00,0.567,0.818,0.525,1.033,0.724,0.334,0.588,0.554,�k�k��,8.1,��
2022/10/24,22:10,0.569,0.817,0.523,1.030,0.723,0.334,0.589,0.554,�k�k��,8.2,��
2022/10/24,22:20,0.565,0.816,0.522,1.034,0.723,0.334,0.587,0.552,�k��,7.7,��
2022/10/24,22:30,0.566,0.819,0.525,1.033,0.724,0.336,0.587,0.553,�k��,6.3,��
2022/10/24,22:40,0.566,0.816,0.525,1.033,0.721,0.334,0.587,0.553,�k�k��,7.7,��
2022/10/24,22:50,0.567,0.817,0.525,1.032,0.724,0.334,0.587,0.554,�k��,7.4,��
2022/10/24,23:00,0.565,0.817,0.526,1.034,0.722,0.334,0.589,0.554,�k��,8.1,��
2022/10/24,23:10,0.567,0.818,0.524,1.032,0.724,0.335,0.587,0.553,�k��,8.3,��
2022/10/24,23:20,0.567,0.818,0.525,1.032,0.723,0.335,0.587,0.553,�k��,9.0,��
2022/10/24,23:30,0.566,0.817,0.526,1.033,0.721,0.334,0.587,0.553,�k�k��,8.8,��
2022/10/24,23:40,0.566,0.816,0.523,1.029,0.724,0.333,0.587,0.553,�k��,9.3,��
2022/10/24,23:50,0.568,0.816,0.524,1.031,0.723,0.333,0.587,0.553,�k��,8.4,��
